Regional Weather Roundup
Issued by NWS Grand Forks, ND

Home | Current Version | Previous Version | Text Only | Print | Product List | Glossary On
Versions: 1 2 3 4 5 6 7 8 9 10 11 12 13 14 15 16 17 18 19 20 21 22 23 24 25 26 27 28 29 30 31 32 33 34 35 36 37 38 39 40 41 42 43 44 45 46 47 48 49 50
695
ASUS43 KFGF 251010
RWRFGF
PRAIRIE TO PINES  WEATHER ROUNDUP
NATIONAL WEATHER SERVICE EASTERN NORTH DAKOTA/GRAND FORKS ND
500 AM CDT MON SEP 25 2017

 **SATELLITE DATA USED TO AUGMENT SKY COVER AT AUTOMATED STATIONS**
 *****  WEATHER ACROSS EASTERN NORTH DAKOTA  *****

CITY           SKY/WX    TMP DP  RH WIND       PRES   REMARKS
GRAND FORKS    CLOUDY    49  48  97 N9        30.07R
GRAND FRKS AFB CLOUDY    48  48 100 N8        30.10R
DEVILS LAKE    NOT AVBL
FARGO          CLOUDY    50  48  93 N15       30.06S
WAHPETON ARPT  CLOUDY    50  45  81 NW8       30.06R
$$

 ***** WEATHER ACROSS CENTRAL AND WESTERN NORTH DAKOTA  *****

CITY           SKY/WX    TMP DP  RH WIND       PRES   REMARKS
BISMARCK       CLOUDY    49  46  90 N3        30.14R
MINOT          CLOUDY    47  44  90 W5        30.12R
JAMESTOWN      CLOUDY    48  45  89 N8        30.08F
MINOT AFB      CLOUDY    46  44  93 NW7       30.11R
GARRISON         N/A     45  44  97 N5        30.13R
WILLISTON      CLOUDY    46  44  93 CALM      30.15R
DICKINSON      CLOUDY    43  41  93 CALM      30.13R
HETTINGER      CLOUDY    44  37  76 N3        30.15R
$$

 *****  OTHER AIRPORT OBSERVATIONS IN OUR AREA  *****

CITY           SKY/WX    TMP DP  RH WIND       PRES   REMARKS
WALHALLA       FAIR     N/A N/A N/A N8        30.10R
GRAFTON AIRPOR NOT AVBL
VALLEY CITY AR NOT AVBL
CANDO          CLOUDY    46  46 100 N8        30.14R
CAVALIER APRT  CLOUDY    48  45  87 N10       30.09R
GWINNER        CLOUDY    50  48  93 N7        30.06F
SHEYENNE NWR     N/A     51  49  93 N7        29.95S
ROLLA          FAIR      41  41 100 N7        30.12S
 ***** THE ABOVE OBSERVATIONS ARE NON NWS ARE NOT QUALITY
       CONTROLLED AND MAY MIS-REPORT RAIN FOR SNOW...
$$

  *****  WEATHER ACROSS NORTHERN MINNESOTA  *****

CITY           SKY/WX    TMP DP  RH WIND       PRES   REMARKS
FLAG ISLAND    CLOUDY    48  46  93 NW15      30.00R FOG
WARROAD        CLOUDY    46  43  87 NW8       30.03R FOG
ROSEAU         CLOUDY    46  43  87 NW12      30.03R
HALLOCK        CLOUDY    48  46  93 N14       30.06S
THF RVR FALLS  LGT RAIN  47  47 100 NW9       30.06R FOG
BAUDETTE       CLOUDY    50  49  96 NW12      29.99R
WASKISH        CLOUDY    50  48  93 W8        30.01R
CROOKSTON      CLOUDY    48  46  93 N10       30.08R
STEPHEN NDAWN    N/A     48  46  93 N13         N/A
GREENBUSH NDAW   N/A     46  46 100 NW9         N/A
$$
  *****  WEATHER ACROSS CENTRAL AND WEST MINNESOTA  *****

CITY           SKY/WX    TMP DP  RH WIND       PRES   REMARKS
FOSSTON        DRIZZLE   46  45  93 NW10      30.04S
BEMIDJI        CLOUDY    47  47  99 W8        30.02R FOG
PARK RAPIDS    MOCLDY    49  47  93 NW6       30.01R
ELBOW LAKE     CLOUDY    50  48  95 N8        30.04R
WADENA         CLOUDY    48  48 100 NW6       30.02R
DETROIT LAKES  CLOUDY    48  46  93 NW9       30.04S
MOORHEAD       MOCLDY    48  46  93 N14       30.06S
FERGUS FALLS   MOCLDY    50  50 100 N7        30.05R
MORRIS MN      DRIZZLE   52  48  87 N9        30.02S
STAPLES        FAIR      48  46  93 NW6       30.02R
$$
  *****  WEATHER ELSEWHERE ACROSS MINNESOTA  *****

CITY           SKY/WX    TMP DP  RH WIND       PRES   REMARKS
DULUTH         CLOUDY    57  57 100 NW9       29.95R FOG
INTRNTL FALLS  FOG       50  49  96 W6        29.96S VSB 1
ELY            FAIR      54  54 100 NW6       29.94S
CLOQUET        CLOUDY    57  54  88 W8        29.97R
WHEATON        CLOUDY    50  46  87 NW7       30.07R
BRAINERD       CLOUDY    52  50  93 NW9       30.00R
HIBBING        FAIR      51  50  96 NW6       29.98R
ALEXANDRIA     CLOUDY    51  49  92 NW12      30.04R
SAINT CLOUD    LGT RAIN  54  53  97 NW7       30.00R
MINNEAPOLIS    LGT RAIN  63  63 100 W8        29.97R
$$

  *****  WEATHER ACROSS SOUTH DAKOTA  *****

CITY           SKY/WX    TMP DP  RH WIND       PRES   REMARKS
SIOUX FALLS    LGT RAIN  54  53  97 N10       30.01R
BROOKINGS      LGT RAIN  50  49  96 N8        30.04S
WATERTOWN      CLOUDY    49  47  93 N13       30.03R
HURON          CLOUDY    50  48  93 N10       30.08R
SISSETON         N/A     51  47  86 N12       30.05R
ABERDEEN       CLOUDY    49  46  90 NW9       30.10R
MITCHELL       LGT RAIN  51  50  96 N9        30.07R
PIERRE         CLOUDY    49  44  83 NE10      30.09S
MOBRIDGE       CLOUDY    50  46  86 N5        30.11R
RAPID CITY     NOT AVBL
$$

  *****  SOME WEATHER IN NEARBY STATES *****

CITY           SKY/WX    TMP DP  RH WIND       PRES   REMARKS
GLASGOW MT     MOCLDY    38  37  97 E8        30.11S
GREAT FALLS MT FAIR      39  30  70 SW10      30.04S
CHEYENNE WY    CLOUDY    38  37  97 N7        30.11R FOG
SCOTTSBLUFF NE FAIR      42  39  89 E3        30.11R
OMAHA NE       MOCLDY    62  58  86 N8        29.95R
DES MOINES IA  FAIR      69  64  84 CALM      29.92R
DAVENPORT IA   FAIR      64  61  90 SE5       29.98S
CHICAGO IL     FAIR      69  57  65 CALM      29.99S
EAU CLAIRE WI  FAIR      65  62  90 CALM      29.93S
LA CROSSE WI   FAIR      70  64  81 SE3       29.92F
$$

  *****  SOME NATIONAL WEATHER *****

CITY           SKY/WX    TMP DP  RH WIND       PRES   REMARKS
LA GUARDIA NY  FAIR      72  66  81 CALM      30.02R
RALEIGH NC     MOCLDY    66  62  87 NE6       30.00R
ATLANTA GA     FAIR      71  64  78 NE9       30.02R
NEW ORLEANS LA FAIR      76  73  91 NE3       29.89S
OKLAHOMA CITY  MOCLDY    69  64  84 SE8       29.90S
ALBUQUERQUE NM FAIR      57  23  26 N6        29.97S
SALT LAKE CITY MOCLDY    45  42  89 S7        30.11S
LOS ANGELES CA FAIR      66  43  43 CALM      29.83F
BOISE ID       FAIR      41  35  79 S6        30.06S
SEATTLE WA     CLOUDY    59  51  75 SE5       30.10S
$$

*** WEATHER ACROSS MANITOBA...SASKATCHEWAN AND ONTARIO ***
                ***ONTARIO***

CITY           SKY/WX    TMP DP  RH WIND       PRES   REMARKS
GERALDTON      MOCLDY    66  61  82 SW10      29.80S
THUNDER BAY    CLOUDY    61  61 100 N2        29.84R
SIOUX LOOKOUT  LGT RAIN  50  50 100 NW5       29.93R FOG
TORONTO        CLEAR     70  63  78 VRB2      30.08R
BIG TROUT LK   LGT RAIN  45  45 100 N8        29.94S FOG
PICKLE LAKE    NOT AVBL
DRYDEN         CLOUDY    50  48  93 N6        29.95  FOG
KENORA         CLOUDY    46  46 100 N10       29.99R FOG
$$
                *** MANITOBA***

CITY           SKY/WX    TMP DP  RH WIND       PRES   REMARKS
BRANDON        CLOUDY    45  41  87 N2        30.14R
DAUPHIN        CLOUDY    45  45 100 W2        30.14R
ISLAND LAKE    NOT AVBL
PILOT MOUND      N/A     45  43  93 NW9         N/A
THE PAS        CLEAR     37  36  93 SE5       30.13S
THOMPSON       MOCLDY    28  28 100 NE3       30.16R
WINNIPEG       CLOUDY    46  45  93 N13       30.09R
LYNN LAKE      CLOUDY    36  36 100 SE6       30.12S
CHURCHILL      CLOUDY    39  34  81 W6        30.17S
GILLAM         CLOUDY    37  34  87 NE7       30.16R
$$
                ***SASKATCHEWAN***

CITY           SKY/WX    TMP DP  RH WIND       PRES   REMARKS
ESTEVAN        PTCLDY    39  39 100 N3        30.13R
KINDERSLEY     CLEAR     36  32  87 S3        30.01R
LLOYDMINSTER   CLOUDY    46  36  66 S10       29.94S
PRINCE ALBERT  PTCLDY    37  36  93 E3        30.06F
REGINA         CLOUDY    43  36  75 S7        30.11R
YORKTON        CLOUDY    45  41  87 S3        30.12R
N. BATTLEFORD  CLEAR     37  32  81 SE8       30.02S
LA RONGE       CLEAR     41  37  87 S6        30.04S
SASKATOON      CLEAR     37  34  87 S5        30.06S
SWIFT CURRENT    N/A     37  32  81 S13       30.03F
$$
NOTE: THESE ARE AUTOMATED STATIONS WITH LIMITED QUALITY CONTROL
      "FAIR" INDICATES FEW OR NO CLOUDS BELOW 12,000 FEET WITH NO
      SIGNIFICANT WEATHER AND/OR OBSTRUCTIONS TO VISIBILITY.
      SKY/WX - SKY CONDITION AND SIGNIFICANT WEATHER.
      TMP - AIR TEMPERATURE.    DP   - DEWPOINT TEMPERATURE.
      RH  - RELATIVE HUMIDITY.  PRES - PRESSURE.
      HX  - HEAT INDEX.         WCI  - WIND CHILL INDEX.
$




USA.gov is the U.S. government's official web portal to all federal, state and local government web resources and services.